1513562400.8,51633,6.5,72782.8,-16.59,-21.17,-21.43,0,*68
1513562402.04,51634,6.44,72782.3,-16.59,-21.17,-21.33,0,*68
1513562403.28,51635,6.44,72784.0,-16.59,-21.13,-21.33,0,*6D
1513562404.51,51636,6.44,72782.8,-16.61,-21.17,-21.43,0,*66
1513562405.73,51637,6.5,72786.5,-16.59,-21.17,-21.43,0,*6C
1513562406.99,51638,6.44,72784.8,-16.61,-21.13,-21.33,0,*6B
1513562408.23,51639,6.44,72786.0,-16.59,-21.13,-21.33,0,*61
1513562409.49,51640,6.5,72790.0,-16.61,-21.13,-21.33,0,*64
1513562410.75,51641,6.44,72788.8,-16.61,-21.17,-21.33,0,*61
1513562411.99,51642,6.5,72788.5,-16.59,-21.17,-21.33,0,*69
1513562413.21,51643,6.5,72792.8,-16.59,-21.17,-21.43,0,*6F
1513562414.45,51644,6.44,72788.0,-16.59,-21.17,-21.53,0,*69
1513562415.69,51645,6.5,72792.0,-16.61,-21.47,-21.63,0,*65
1513562416.93,51646,6.44,72786.5,-16.59,-21.47,-21.83,0,*63
1513562418.17,51647,6.44,72786.8,-16.59,-21.63,-21.83,0,*64
1513562419.43,51648,6.44,72786.8,-16.61,-21.63,-21.67,0,*6A
1513562420.7,51649,6.5,72784.0,-16.61,-21.53,-21.77,0,*69
1513562421.94,51650,6.44,72784.5,-16.61,-21.63,-21.77,0,*62
1513562423.21,51651,6.44,72786.5,-16.57,-21.47,-21.87,0,*6F
1513562424.48,51652,6.44,72784.5,-16.61,-21.53,-21.77,0,*63
1513562425.7,51653,6.44,72786.5,-16.59,-21.63,-21.77,0,*6A
1513562426.96,51654,6.44,72784.3,-16.61,-21.47,-21.67,0,*61
1513562428.18,51655,6.44,72786.5,-16.59,-21.47,-21.63,0,*6F
1513562429.42,51656,6.44,72786.5,-16.59,-21.47,-21.67,0,*68
1513562430.72,51657,6.44,72788.3,-16.61,-21.53,-21.67,0,*67
1513562431.98,51658,6.5,72784.3,-16.61,-21.33,-21.63,0,*6A
1513562433.22,51659,6.44,72784.0,-16.61,-21.43,-21.63,0,*6C
1513562434.48,51660,6.44,72786.5,-16.59,-21.33,-21.53,0,*69
1513562435.73,51661,6.44,72784.5,-16.59,-21.27,-21.47,0,*68
1513562436.99,51662,6.5,72788.3,-16.61,-21.27,-21.43,0,*64
1513562438.23,51663,6.44,72790.0,-16.59,-21.47,-21.53,0,*69
1513562439.47,51664,6.44,72788.0,-16.59,-21.33,-21.47,0,*68
1513562440.73,51665,6.44,72788.8,-16.61,-21.27,-21.63,0,*61
1513562442.0,51666,6.5,72792.8,-16.61,-21.33,-21.47,0,*61
1513562443.26,51667,6.44,72788.3,-16.59,-21.33,-21.53,0,*6E
1513562444.53,51668,6.5,72792.0,-16.59,-21.33,-21.53,0,*61
1513562445.77,51669,6.5,72794.8,-16.59,-21.47,-21.67,0,*64
1513562447.01,51670,6.44,72794.0,-16.61,-21.63,-21.77,0,*60
1513562448.29,51671,6.44,72788.5,-16.59,-21.53,-21.67,0,*68
1513562449.53,51672,6.44,72788.8,-16.59,-21.47,-21.67,0,*6E
1513562450.8,51673,6.5,72792.5,-16.61,-21.53,-21.77,0,*60
1513562452.05,51674,6.44,72790.0,-16.59,-21.53,-21.77,0,*6C
1513562453.31,51675,6.44,72788.0,-16.61,-21.63,-21.83,0,*6E
1513562454.61,51676,6.44,72790.3,-16.61,-21.67,-21.83,0,*69
1513562455.87,51677,6.5,72790.0,-16.61,-21.63,-21.83,0,*6C
1513562457.14,51678,6.5,72788.8,-16.61,-21.53,-21.77,0,*6B
1513562458.38,51679,6.5,72794.3,-16.59,-21.63,-21.83,0,*69
1513562459.64,51680,6.5,72790.0,-16.61,-21.63,-21.83,0,*64
1513562460.89,51681,6.44,72788.3,-16.59,-21.67,-21.77,0,*61
1513562462.16,51682,6.5,72790.5,-16.61,-21.53,-21.77,0,*6E
1513562463.43,51683,6.44,72790.8,-16.61,-21.67,-21.93,0,*62
1513562464.67,51684,6.44,72786.8,-16.59,-21.77,-21.97,0,*6B
1513562465.94,51685,6.44,72786.3,-16.59,-21.67,-21.97,0,*6B
1513562467.18,51686,6.44,72786.8,-16.61,-21.77,-21.93,0,*66
1513562468.44,51687,6.44,72786.3,-16.61,-21.93,-21.97,0,*69
1513562469.68,51688,6.44,72786.3,-16.63,-21.73,-21.97,0,*6A
1513562470.95,51689,6.5,72788.5,-16.63,-21.67,-21.87,0,*6F
1513562472.22,51690,6.5,72788.8,-16.63,-21.67,-21.87,0,*67
1513562473.49,51691,6.44,72790.8,-16.63,-21.67,-21.83,0,*62
1513562474.72,51692,6.5,72788.8,-16.63,-21.57,-21.73,0,*6D
1513562475.98,51693,6.5,72790.0,-16.63,-21.83,-21.97,0,*6F
1513562477.24,51694,6.44,72790.3,-16.65,-21.73,-21.83,0,*64
1513562478.53,51695,6.44,72786.3,-16.65,-21.67,-21.83,0,*60
1513562479.78,51696,6.44,72790.8,-16.63,-21.73,-21.83,0,*60
1513562481.05,51697,6.5,72788.0,-16.63,-21.53,-21.67,0,*69
1513562482.29,51698,6.44,72788.0,-16.63,-21.53,-21.73,0,*63
1513562483.55,51699,6.44,72786.3,-16.63,-21.57,-21.67,0,*63
1513562484.79,51700,6.44,72788.3,-16.63,-21.53,-21.73,0,*63
1513562486.04,51701,6.44,72788.3,-16.63,-21.73,-21.87,0,*6B
1513562487.27,51702,6.44,72788.5,-16.63,-21.83,-22.03,0,*68
1513562488.48,51703,6.44,72788.0,-16.63,-22.03,-22.03,0,*62
1513562489.73,51704,6.44,72790.8,-16.63,-21.87,-22.03,0,*6A
1513562490.97,51705,6.44,72786.8,-16.63,-21.83,-22.03,0,*6F
1513562492.21,51706,6.44,72790.8,-16.63,-21.87,-22.03,0,*68
1513562493.47,51707,6.44,72790.0,-16.63,-21.97,-22.17,0,*6D
1513562494.72,51708,6.44,72788.3,-16.63,-21.87,-22.11,0,*65
1513562495.98,51709,6.5,72792.8,-16.63,-21.97,-22.17,0,*63
1513562497.19,51710,6.5,72790.5,-16.63,-22.03,-22.11,0,*63
1513562498.46,51711,6.44,72784.5,-16.65,-21.87,-22.11,0,*6B
1513562499.72,51712,6.44,72786.5,-16.65,-21.87,-22.11,0,*68
1513562500.98,51713,6.5,72788.3,-16.65,-22.03,-22.17,0,*60
1513562502.24,51714,6.44,72786.8,-16.65,-21.97,-22.03,0,*6C
1513562503.51,51715,6.44,72790.5,-16.63,-21.87,-21.97,0,*64
1513562504.77,51716,6.44,72784.5,-16.65,-21.97,-22.03,0,*6E
1513562506.03,51717,6.44,72784.8,-16.65,-21.97,-22.03,0,*6F
1513562507.25,51718,6.44,72784.8,-16.67,-21.77,-22.03,0,*6C
1513562508.46,51719,6.5,72792.8,-16.67,-21.73,-22.07,0,*6D
1513562509.71,51720,6.44,72790.0,-16.67,-21.87,-22.03,0,*68
1513562510.99,51721,6.44,72788.3,-16.65,-21.83,-21.97,0,*61
1513562512.28,51722,6.5,72790.0,-16.65,-21.83,-21.97,0,*62
1513562513.52,51723,6.44,72786.3,-16.67,-21.77,-21.83,0,*6F
1513562514.77,51724,6.44,72786.5,-16.67,-21.87,-22.03,0,*6C
1513562515.99,51725,6.5,72788.0,-16.67,-21.77,-21.93,0,*68
1513562517.26,51726,6.5,72788.8,-16.69,-21.87,-22.07,0,*64
1513562518.52,51727,6.44,72784.8,-16.65,-21.73,-21.87,0,*69
1513562519.8,51728,6.5,72792.3,-16.67,-21.87,-21.87,0,*6F
1513562521.05,51729,6.44,72784.3,-16.67,-21.87,-21.93,0,*6B
1513562522.29,51730,6.44,72784.5,-16.67,-21.87,-22.07,0,*6D
1513562523.54,51731,6.44,72786.5,-16.67,-21.87,-21.93,0,*62
1513562524.77,51732,6.5,72790.8,-16.63,-21.83,-22.03,0,*6B
1513562526.03,51733,6.44,72786.3,-16.65,-21.97,-22.03,0,*69
1513562527.32,51734,6.44,72788.8,-16.65,-21.87,-21.97,0,*61
1513562528.59,51735,6.44,72790.8,-16.65,-21.73,-21.87,0,*6A
1513562529.84,51736,6.44,72784.0,-16.67,-21.87,-21.93,0,*65
1513562531.1,51737,6.44,72788.8,-16.65,-21.87,-22.03,0,*6C
1513562532.39,51738,6.5,72790.8,-16.65,-21.83,-21.97,0,*69
1513562533.61,51739,6.44,72788.0,-16.67,-21.93,-22.03,0,*65
1513562534.83,51740,6.44,72788.0,-16.67,-21.73,-21.93,0,*6F
1513562536.11,51741,6.5,72794.8,-16.65,-21.57,-21.83,0,*6B
1513562537.33,51742,6.44,72790.3,-16.67,-21.63,-21.77,0,*66
1513562538.59,51743,6.44,72788.8,-16.65,-21.47,-21.67,0,*62
1513562539.85,51744,6.44,72790.3,-16.65,-21.47,-21.57,0,*66
1513562541.1,51745,6.44,72788.5,-16.67,-21.53,-21.63,0,*67
1513562542.35,51746,6.44,72790.5,-16.65,-21.47,-21.57,0,*64
1513562543.61,51747,6.44,72792.0,-16.65,-21.57,-21.73,0,*62
1513562544.9,51748,6.44,72790.8,-16.65,-21.83,-21.87,0,*6F
1513562546.17,51749,6.44,72794.0,-16.65,-22.03,-22.17,0,*6F
1513562547.43,51750,6.44,72792.3,-16.65,-22.11,-22.31,0,*60
1513562548.67,51751,6.44,72792.8,-16.65,-22.11,-22.27,0,*66
1513562549.9,51752,6.44,72794.0,-16.67,-22.07,-22.31,0,*67
1513562551.14,51753,6.44,72790.0,-16.67,-22.07,-22.17,0,*62
1513562552.38,51754,6.44,72790.8,-16.67,-22.07,-22.21,0,*60
1513562553.62,51755,6.5,72792.8,-16.67,-22.03,-22.17,0,*60
1513562554.87,51756,6.44,72790.3,-16.67,-21.93,-22.17,0,*69
1513562556.08,51757,6.44,72788.5,-16.67,-22.03,-22.07,0,*63
1513562557.34,51758,6.44,72788.8,-16.65,-21.87,-22.03,0,*65
1513562558.58,51759,6.44,72792.5,-16.65,-22.03,-22.03,0,*6B
1513562559.85,51760,6.44,72792.0,-16.67,-22.17,-22.21,0,*66
1513562561.08,51761,6.44,72792.5,-16.67,-22.07,-22.21,0,*66
1513562562.38,51762,6.44,72794.3,-16.69,-22.17,-22.31,0,*6B
1513562563.64,51763,6.44,72792.8,-16.69,-22.31,-22.37,0,*68
1513562564.91,51764,6.44,72788.0,-16.69,-22.47,-22.53,0,*6C
1513562566.18,51765,6.44,72790.3,-16.69,-22.47,-22.57,0,*69
1513562567.45,51766,6.44,72788.3,-16.69,-22.37,-22.47,0,*6C
1513562568.74,51767,6.44,72786.3,-16.69,-22.21,-22.31,0,*6B
1513562570.01,51768,6.44,72788.5,-16.73,-22.21,-22.37,0,*69
1513562571.26,51769,6.44,72788.0,-16.73,-22.07,-22.21,0,*6B
1513562572.5,51770,6.44,72788.3,-16.73,-22.07,-22.27,0,*65
1513562573.73,51771,6.44,72790.5,-16.73,-22.07,-22.11,0,*61
1513562574.98,51772,6.5,72792.3,-16.73,-22.07,-22.21,0,*61
1513562576.22,51773,6.44,72788.8,-16.69,-22.03,-22.07,0,*6B
1513562577.47,51774,6.44,72790.3,-16.73,-22.07,-22.21,0,*67
1513562578.71,51775,6.44,72792.3,-16.73,-22.07,-22.07,0,*62
1513562579.94,51776,6.44,72794.3,-16.73,-22.07,-22.11,0,*66
1513562581.17,51777,6.5,72794.5,-16.73,-22.07,-22.11,0,*67
1513562582.41,51778,6.44,72792.0,-16.75,-21.97,-22.11,0,*64
1513562583.65,51779,6.44,72792.3,-16.75,-21.97,-22.11,0,*65
1513562584.91,51780,6.44,72792.5,-16.73,-21.97,-22.11,0,*65
1513562586.15,51781,6.44,72790.3,-16.73,-22.11,-22.11,0,*69
1513562587.39,51782,6.44,72794.0,-16.73,-22.11,-22.27,0,*6F
1513562588.65,51783,6.44,72790.5,-16.73,-22.07,-22.21,0,*6F
1513562589.88,51784,6.5,72794.8,-16.75,-22.07,-22.21,0,*6E
1513562591.13,51785,6.44,72790.0,-16.73,-22.07,-22.21,0,*69
1513562592.4,51786,6.44,72790.3,-16.73,-21.97,-22.07,0,*64
1513562593.66,51787,6.44,72792.0,-16.73,-21.77,-21.97,0,*61
1513562594.88,51788,6.44,72794.0,-16.75,-21.93,-22.07,0,*68
1513562596.12,51789,6.44,72794.5,-16.75,-21.93,-21.97,0,*63
1513562597.38,51790,6.44,72794.8,-16.73,-21.97,-22.07,0,*63
1513562598.65,51791,6.44,72792.3,-16.73,-21.97,-22.07,0,*62
1513562599.91,51792,6.44,72790.5,-16.73,-21.97,-22.07,0,*61
1513562601.15,51793,6.44,72792.5,-16.73,-21.93,-22.11,0,*63
1513562602.38,51794,6.44,72792.0,-16.73,-22.07,-22.11,0,*6A
1513562603.61,51795,6.5,72798.5,-16.75,-22.07,-22.21,0,*6E
1513562604.9,51796,6.44,72792.8,-16.73,-22.21,-22.21,0,*6F
1513562606.14,51797,6.44,72794.8,-16.75,-22.11,-22.21,0,*6B
1513562607.36,51798,6.44,72792.8,-16.75,-22.11,-22.11,0,*67
1513562608.61,51799,6.44,72792.5,-16.73,-22.07,-22.21,0,*64
1513562609.85,51800,6.44,72790.3,-16.75,-22.07,-22.21,0,*6D
1513562611.08,51801,6.44,72792.0,-16.73,-22.07,-22.11,0,*69
1513562612.34,51802,6.44,72788.3,-16.73,-21.93,-21.97,0,*69
1513562613.55,51803,6.44,72794.5,-16.75,-22.07,-22.07,0,*6A
1513562614.79,51804,6.44,72790.3,-16.75,-22.11,-22.21,0,*6E
1513562616.03,51805,6.5,72792.3,-16.75,-22.21,-22.27,0,*6A
1513562617.27,51806,6.44,72790.8,-16.73,-22.11,-22.27,0,*6C
1513562618.54,51807,6.44,72794.3,-16.73,-22.21,-22.27,0,*6E
1513562619.78,51808,6.44,72792.0,-16.73,-22.11,-22.11,0,*67
1513562621.04,51809,6.44,72794.0,-16.73,-21.97,-22.11,0,*6B
1513562622.26,51810,6.44,72792.3,-16.75,-22.11,-22.27,0,*6D
1513562623.54,51811,6.44,72794.3,-16.73,-22.21,-22.21,0,*6F
1513562624.76,51812,6.44,72792.0,-16.75,-22.11,-22.27,0,*6F
1513562626.02,51813,6.44,72790.8,-16.73,-22.11,-22.21,0,*6E
1513562627.27,51814,6.44,72792.8,-16.75,-22.21,-22.27,0,*6A
1513562628.48,51815,6.44,72792.8,-16.75,-22.27,-22.37,0,*6C
1513562629.7,51816,6.44,72794.8,-16.75,-22.37,-22.57,0,*68
1513562630.91,51817,6.44,72794.0,-16.75,-22.41,-22.53,0,*6C
1513562632.13,51818,6.44,72790.5,-16.75,-22.27,-22.37,0,*61
1513562633.34,51819,6.44,72792.5,-16.75,-22.11,-22.27,0,*64
1513562634.59,51820,6.44,72790.8,-16.75,-22.21,-22.27,0,*6D
1513562635.83,51821,6.44,72794.3,-16.75,-22.21,-22.27,0,*6C
1513562637.04,51822,6.44,72794.3,-16.75,-22.27,-22.41,0,*69
1513562638.34,51823,6.44,72790.3,-16.77,-22.31,-22.47,0,*6B
1513562639.58,51824,6.44,72792.3,-16.77,-22.27,-22.41,0,*6D
1513562640.79,51825,6.44,72792.0,-16.79,-22.27,-22.41,0,*62
1513562642.06,51826,6.5,72794.0,-16.79,-22.17,-22.31,0,*65
1513562643.3,51827,6.44,72794.0,-16.77,-22.03,-22.27,0,*68
1513562644.52,51828,6.44,72792.5,-16.79,-22.11,-22.27,0,*6A
1513562645.79,51829,6.44,72792.8,-16.77,-22.27,-22.31,0,*67
1513562647.03,51830,6.44,72792.3,-16.75,-22.21,-22.27,0,*6C
1513562648.3,51831,6.44,72794.3,-16.77,-22.17,-22.27,0,*6A
1513562649.55,51832,6.44,72794.0,-16.77,-22.11,-22.27,0,*6F
1513562650.78,51833,6.44,72792.3,-16.75,-22.07,-22.21,0,*6D
1513562652.05,51834,6.44,72790.8,-16.77,-22.11,-22.17,0,*6A
1513562653.32,51835,6.44,72788.8,-16.77,-22.11,-22.31,0,*6F
1513562654.54,51836,6.44,72790.8,-16.79,-22.11,-22.27,0,*65
1513562655.78,51837,6.44,72788.0,-16.77,-22.11,-22.27,0,*6A
1513562657.05,51838,6.44,72788.8,-16.79,-22.17,-22.17,0,*6E
1513562658.33,51839,6.44,72792.3,-16.77,-22.11,-22.17,0,*67
1513562659.57,51840,6.44,72788.3,-16.77,-22.03,-22.03,0,*6F
1513562660.83,51841,6.44,72788.8,-16.77,-21.97,-22.03,0,*60
1513562662.1,51842,6.44,72790.0,-16.79,-21.87,-21.97,0,*62
1513562663.37,51843,6.44,72790.8,-16.77,-21.87,-22.03,0,*63
1513562664.64,51844,6.5,72790.8,-16.77,-21.87,-22.03,0,*64
1513562665.94,51845,6.44,72786.8,-16.77,-21.87,-21.97,0,*6B
1513562667.18,51846,6.44,72788.3,-16.75,-21.77,-21.83,0,*60
1513562668.48,51847,6.44,72790.3,-16.77,-21.87,-21.97,0,*69
1513562669.74,51848,6.44,72788.8,-16.79,-21.83,-21.97,0,*6C
1513562671.01,51849,6.44,72790.5,-16.75,-21.67,-21.83,0,*6E
1513562672.26,51850,6.44,72790.3,-16.79,-21.87,-22.03,0,*6F
1513562673.53,51851,6.44,72786.5,-16.77,-21.87,-22.03,0,*60
1513562674.82,51852,6.44,72790.8,-16.77,-21.83,-21.97,0,*69
1513562676.09,51853,6.44,72792.0,-16.73,-21.83,-21.93,0,*68
1513562677.31,51854,6.44,72790.5,-16.75,-21.77,-21.93,0,*62
1513562678.6,51855,6.44,72790.0,-16.77,-21.87,-21.97,0,*6A
1513562679.82,51856,6.44,72788.0,-16.75,-21.93,-21.93,0,*6A
1513562681.09,51857,6.44,72790.3,-16.73,-21.93,-21.97,0,*69
1513562682.3,51858,6.44,72790.8,-16.75,-22.07,-22.07,0,*64
1513562683.54,51859,6.44,72790.0,-16.75,-21.97,-22.11,0,*68
1513562684.75,51860,6.44,72790.5,-16.75,-22.07,-22.11,0,*68
1513562685.96,51861,6.44,72788.0,-16.75,-22.11,-22.27,0,*6B
1513562687.18,51862,6.44,72788.8,-16.75,-22.11,-22.27,0,*68
1513562688.45,51863,6.44,72788.8,-16.77,-22.17,-22.27,0,*6D
1513562689.69,51864,6.44,72788.5,-16.75,-22.11,-22.21,0,*68
1513562690.93,51865,6.44,72786.5,-16.75,-22.11,-22.21,0,*69
1513562692.19,51866,6.44,72790.5,-16.75,-22.21,-22.21,0,*69
1513562693.44,51867,6.44,72790.0,-16.75,-22.21,-22.27,0,*6E
1513562694.73,51868,6.44,72788.0,-16.77,-22.31,-22.31,0,*65
1513562696.01,51869,6.44,72786.8,-16.77,-22.41,-22.47,0,*62
1513562697.24,51870,6.44,72790.5,-16.77,-22.41,-22.41,0,*6C
1513562698.54,51871,6.44,72790.8,-16.77,-22.31,-22.47,0,*6C
1513562699.79,51872,6.44,72788.0,-16.79,-22.17,-22.27,0,*63
1513562701.0,51873,6.44,72788.0,-16.75,-22.11,-22.27,0,*68
1513562702.27,51874,6.44,72788.0,-16.77,-22.27,-22.31,0,*6F
1513562703.57,51875,6.5,72794.3,-16.77,-22.31,-22.31,0,*69
1513562704.84,51876,6.44,72790.8,-16.79,-22.31,-22.47,0,*65
1513562706.12,51877,6.44,72790.5,-16.79,-22.31,-22.47,0,*64
1513562707.36,51878,6.44,72790.8,-16.79,-22.41,-22.47,0,*6C
1513562708.64,51879,6.44,72790.3,-16.79,-22.47,-22.47,0,*6B
1513562709.88,51880,6.44,72794.0,-16.79,-22.31,-22.41,0,*6A
1513562711.11,51881,6.44,72792.8,-16.79,-22.31,-22.41,0,*6B
1513562712.36,51882,6.5,72794.0,-16.79,-22.41,-22.47,0,*69
1513562713.6,51883,6.44,72794.0,-16.79,-22.31,-22.41,0,*69
1513562714.84,51884,6.44,72794.5,-16.79,-22.41,-22.47,0,*6F
1513562716.05,51885,6.44,72792.3,-16.79,-22.41,-22.41,0,*68
1513562717.33,51886,6.44,72788.3,-16.79,-22.47,-22.47,0,*6B
1513562718.57,51887,6.44,72790.0,-16.79,-22.41,-22.47,0,*6C
1513562719.85,51888,6.44,72790.0,-16.81,-22.37,-22.47,0,*65
1513562721.1,51889,6.44,72788.3,-16.81,-22.37,-22.53,0,*61
1513562722.34,51890,6.44,72788.0,-16.81,-22.37,-22.37,0,*6B
1513562723.58,51891,6.44,72792.0,-16.83,-22.31,-22.37,0,*6E
1513562724.85,51892,6.44,72790.5,-16.81,-22.31,-22.37,0,*6F
1513562726.12,51893,6.44,72790.8,-16.81,-22.31,-22.37,0,*6E
1513562727.38,51894,6.44,72790.3,-16.81,-22.31,-22.37,0,*69
1513562728.63,51895,6.5,72794.3,-16.83,-22.31,-22.37,0,*6A
1513562729.93,51896,6.44,72792.3,-16.81,-22.21,-22.31,0,*6C
1513562731.22,51897,6.44,72784.8,-16.81,-22.21,-22.21,0,*6C
1513562732.5,51898,6.44,72790.8,-16.83,-22.21,-22.17,0,*64
1513562733.76,51899,6.44,72790.8,-16.81,-22.07,-22.17,0,*63
1513562735.07,51900,6.44,72792.0,-16.81,-22.17,-22.17,0,*63
1513562736.33,51901,6.44,72786.0,-16.81,-22.07,-22.17,0,*63
1513562737.63,51902,6.44,72790.8,-16.81,-22.17,-22.21,0,*64
1513562738.89,51903,6.5,72792.8,-16.81,-22.07,-22.21,0,*64
1513562740.16,51904,6.44,72790.8,-16.81,-22.31,-22.37,0,*61
1513562741.4,51905,6.44,72792.3,-16.81,-22.37,-22.37,0,*66
1513562742.67,51906,6.44,72790.3,-16.81,-22.47,-22.37,0,*62
1513562743.95,51907,6.44,72792.0,-16.81,-22.37,-22.47,0,*63
1513562745.25,51908,6.44,72790.8,-16.81,-22.31,-22.47,0,*6A
1513562746.5,51909,6.44,72790.3,-16.83,-22.37,-22.47,0,*6F
1513562747.78,51910,6.5,72792.0,-16.83,-22.31,-22.47,0,*61
1513562749.05,51911,6.44,72790.3,-16.81,-22.31,-22.37,0,*65
1513562750.27,51912,6.5,72792.3,-16.83,-22.37,-22.37,0,*62
1513562751.49,51913,6.44,72788.3,-16.83,-22.37,-22.37,0,*63
1513562752.75,51914,6.44,72790.8,-16.83,-22.37,-22.47,0,*63
1513562753.97,51915,6.44,72790.3,-16.83,-22.37,-22.53,0,*67
1513562755.23,51916,6.44,72790.0,-16.83,-22.37,-22.47,0,*61
1513562756.51,51917,6.44,72786.0,-16.83,-22.31,-22.47,0,*66
1513562757.77,51918,6.44,72790.0,-16.81,-22.31,-22.37,0,*6C
1513562759.05,51919,6.44,72792.0,-16.81,-22.47,-22.53,0,*6E
1513562760.33,51920,6.5,72794.8,-16.83,-22.31,-22.47,0,*62
1513562761.6,51921,6.44,72790.8,-16.83,-22.21,-22.31,0,*63
1513562762.87,51922,6.44,72792.0,-16.81,-22.31,-22.37,0,*65
1513562764.12,51923,6.44,72792.3,-16.83,-22.21,-22.37,0,*67
1513562765.39,51924,6.44,72788.8,-16.83,-22.31,-22.31,0,*67
1513562766.69,51925,6.44,72788.8,-16.81,-22.21,-22.31,0,*65
1513562767.93,51926,6.44,72788.5,-16.83,-22.07,-22.21,0,*61
1513562769.22,51927,6.44,72784.3,-16.81,-22.17,-22.21,0,*63
1513562770.52,51928,6.44,72786.3,-16.81,-22.21,-22.21,0,*69
1513562771.77,51929,6.44,72790.0,-16.83,-22.03,-22.17,0,*6F
1513562772.99,51930,6.44,72786.0,-16.83,-21.93,-22.07,0,*6C
1513562774.23,51931,6.44,72790.8,-16.81,-22.03,-22.07,0,*65
1513562775.48,51932,6.44,72788.3,-16.83,-22.07,-22.17,0,*61
1513562776.7,51933,6.5,72792.0,-16.83,-22.03,-22.03,0,*61
1513562777.92,51934,6.44,72788.5,-16.83,-21.93,-21.93,0,*66
1513562779.14,51935,6.44,72788.5,-16.83,-22.03,-22.03,0,*67
1513562780.37,51936,6.44,72786.5,-16.83,-21.93,-22.03,0,*6E
1513562781.64,51937,6.44,72790.3,-16.81,-21.77,-21.87,0,*68
1513562782.89,51938,6.44,72788.0,-16.81,-21.77,-21.93,0,*62
1513562784.11,51939,6.44,72788.3,-16.83,-21.77,-21.77,0,*6B
1513562785.39,51940,6.44,72790.5,-16.81,-21.77,-21.87,0,*68
1513562786.64,51941,6.5,72796.3,-16.83,-21.87,-21.93,0,*61
1513562787.91,51942,6.44,72790.3,-16.79,-21.83,-21.97,0,*67
1513562789.12,51943,6.44,72792.3,-16.79,-22.27,-22.27,0,*63
1513562790.37,51944,6.44,72784.0,-16.79,-22.27,-22.17,0,*67
1513562791.64,51945,6.44,72788.3,-16.81,-22.31,-22.37,0,*64
1513562792.94,51946,6.44,72788.0,-16.81,-22.47,-22.47,0,*61
1513562794.22,51947,6.44,72792.0,-16.81,-22.37,-22.47,0,*67
1513562795.52,51948,6.44,72788.5,-16.81,-22.47,-22.47,0,*6F
1513562796.8,51949,6.44,72790.3,-16.81,-22.37,-22.47,0,*69
1513562798.07,51950,6.44,72792.5,-16.81,-22.37,-22.47,0,*61
1513562799.37,51951,6.44,72792.0,-16.81,-22.17,-22.21,0,*62
1513562800.66,51952,6.44,72794.5,-16.81,-22.21,-22.21,0,*64
1513562801.93,51953,6.44,72790.3,-16.81,-22.21,-22.37,0,*62
1513562803.22,51954,6.44,72788.5,-16.81,-22.31,-22.21,0,*63
1513562804.49,51955,6.44,72788.5,-16.81,-22.21,-22.37,0,*64
1513562805.76,51956,6.44,72790.5,-16.81,-22.47,-22.53,0,*65
1513562807.01,51957,6.44,72788.0,-16.81,-22.53,-22.53,0,*61
1513562808.29,51958,6.44,72792.3,-16.83,-22.47,-22.47,0,*6C
1513562809.57,51959,6.44,72792.5,-16.81,-22.37,-22.47,0,*68
1513562810.87,51960,6.44,72790.5,-16.81,-22.31,-22.31,0,*65
1513562812.11,51961,6.5,72790.5,-16.83,-22.31,-22.37,0,*60
1513562813.36,51962,6.44,72788.3,-16.83,-22.31,-22.37,0,*63
1513562814.64,51963,6.44,72786.5,-16.83,-22.31,-22.47,0,*65
1513562815.94,51964,6.44,72788.8,-16.81,-22.31,-22.47,0,*60
1513562817.21,51965,6.44,72786.3,-16.81,-22.37,-22.47,0,*67
1513562818.46,51966,6.44,72788.0,-16.81,-22.37,-22.37,0,*63
1513562819.75,51967,6.44,72790.8,-16.81,-22.21,-22.21,0,*62
1513562821.0,51968,6.44,72788.8,-16.83,-22.03,-22.17,0,*6A
1513562822.24,51969,6.44,72790.3,-16.81,-22.03,-22.07,0,*68
1513562823.49,51970,6.44,72784.8,-16.83,-22.03,-22.17,0,*63
1513562824.73,51971,6.44,72788.3,-16.81,-22.03,-22.07,0,*61
1513562825.95,51972,6.44,72790.0,-16.83,-21.93,-22.03,0,*6E
1513562827.19,51973,6.44,72786.0,-16.79,-21.97,-22.03,0,*6E
1513562828.43,51974,6.44,72788.8,-16.81,-22.03,-22.07,0,*64
1513562829.68,51975,6.44,72790.3,-16.83,-21.87,-22.07,0,*68
1513562830.9,51976,6.44,72784.3,-16.83,-22.03,-22.07,0,*64
1513562832.17,51977,6.44,72788.0,-16.81,-22.03,-21.87,0,*6C
1513562833.44,51978,6.44,72786.8,-16.81,-22.03,-21.87,0,*63
1513562834.7,51979,6.44,72790.8,-16.79,-21.97,-21.97,0,*6A
1513562835.97,51980,6.44,72786.0,-16.79,-21.87,-21.97,0,*6D
1513562837.18,51981,6.44,72788.0,-16.79,-22.11,-22.03,0,*6E
1513562838.4,51982,6.44,72790.5,-16.79,-22.11,-22.11,0,*6E
1513562839.61,51983,6.44,72790.3,-16.79,-22.03,-22.03,0,*6F
1513562840.85,51984,6.44,72786.3,-16.77,-22.03,-22.11,0,*65
1513562842.13,51985,6.5,72790.5,-16.79,-22.17,-22.17,0,*69
1513562843.37,51986,6.44,72790.5,-16.79,-22.27,-22.31,0,*6D
1513562844.61,51987,6.44,72790.3,-16.77,-22.41,-22.41,0,*65
1513562845.82,51988,6.44,72788.3,-16.79,-22.27,-22.41,0,*64
1513562847.1,51989,6.44,72790.0,-16.79,-22.17,-22.17,0,*65
1513562848.31,51990,6.44,72788.5,-16.79,-22.11,-22.11,0,*6D
1513562849.58,51991,6.44,72790.8,-16.79,-21.87,-21.97,0,*6D
1513562850.82,51992,6.44,72786.8,-16.77,-22.11,-22.11,0,*61
1513562852.04,51993,6.44,72790.0,-16.79,-22.27,-22.11,0,*6B
1513562853.3,51994,6.44,72790.0,-16.79,-21.83,-21.97,0,*6C
1513562854.54,51995,6.44,72788.0,-16.77,-22.11,-22.03,0,*65
1513562855.82,51996,6.44,72788.8,-16.79,-22.17,-22.17,0,*6B
1513562857.04,51997,6.44,72788.3,-16.79,-22.03,-22.03,0,*6A
1513562858.34,51998,6.44,72788.5,-16.77,-21.87,-21.87,0,*6B
1513562859.57,51999,6.44,72790.3,-16.77,-21.73,-21.73,0,*6A
1513562860.84,52000,6.44,72790.5,-16.77,-21.73,-21.83,0,*6F
1513562862.13,52001,6.44,72790.0,-16.77,-21.97,-21.97,0,*61
1513562863.41,52002,6.44,72790.5,-16.79,-22.17,-22.17,0,*6C
1513562864.65,52003,6.44,72790.5,-16.77,-22.03,-22.03,0,*63
1513562865.92,52004,6.44,72792.0,-16.79,-21.87,-21.97,0,*6B
1513562867.22,52005,6.44,72788.3,-16.77,-21.87,-21.87,0,*65
1513562868.51,52006,6.44,72792.8,-16.77,-21.97,-21.87,0,*67
1513562869.81,52007,6.44,72790.8,-16.77,-21.87,-21.97,0,*66
1513562871.03,52008,6.44,72790.0,-16.75,-21.77,-21.77,0,*6A
1513562872.27,52009,6.44,72794.3,-16.75,-21.83,-21.77,0,*60
1513562873.54,52010,6.44,72790.8,-16.75,-21.67,-21.67,0,*63
1513562874.76,52011,6.44,72792.3,-16.75,-21.77,-21.77,0,*62
1513562875.98,52012,6.44,72792.3,-16.75,-21.77,-21.63,0,*64
1513562877.2,52013,6.44,72792.0,-16.75,-21.93,-21.77,0,*6A
1513562878.41,52014,6.44,72792.3,-16.75,-22.07,-21.93,0,*69
1513562879.7,52015,6.44,72792.0,-16.73,-21.97,-21.97,0,*60
1513562880.96,52016,6.44,72792.5,-16.75,-21.97,-21.97,0,*65
1513562882.18,52017,6.44,72794.5,-16.75,-21.93,-21.93,0,*64
1513562883.44,52018,6.44,72794.5,-16.75,-21.97,-21.97,0,*6B
1513562884.66,52019,6.44,72796.0,-16.75,-21.93,-21.93,0,*6A
1513562885.91,52020,6.44,72798.3,-16.69,-21.93,-21.77,0,*67
1513562887.11,52021,6.44,72796.0,-16.75,-22.07,-22.07,0,*61
1513562888.35,52022,6.44,72798.8,-16.73,-22.11,-22.11,0,*64
1513562889.59,52023,6.44,72792.8,-16.73,-22.37,-22.37,0,*65
1513562890.81,52024,6.44,72796.3,-16.75,-22.41,-22.53,0,*67
1513562892.03,52025,6.44,72796.0,-16.75,-22.57,-22.57,0,*65
1513562893.27,52026,6.44,72794.8,-16.73,-22.63,-22.57,0,*67
1513562894.48,52027,6.44,72794.0,-16.75,-22.63,-22.57,0,*60
1513562895.7,52028,6.44,72796.5,-16.75,-22.53,-22.53,0,*68
1513562896.91,52029,6.44,72794.8,-16.75,-22.41,-22.37,0,*68
1513562898.13,52030,6.44,72792.3,-16.75,-22.27,-22.37,0,*60
1513562899.4,52031,6.44,72792.5,-16.77,-22.41,-22.31,0,*65
1513562900.67,52032,6.44,72796.0,-16.77,-22.41,-22.47,0,*67
1513562901.89,52033,6.44,72796.3,-16.75,-22.53,-22.53,0,*62